DB0LHR-6 Weather Reports


time (UTC)temp
C
wind
direction
speed
KPH
gust
KPH
rain 1hr
cm
rain 24hr
cm
rain mn
cm
humidity
%
barometer
mb
20260902101749 26 194 0.0 0.0 0.00 0.00 0.00 30 1022.0
20260902100249 26 177 0.0 0.0 0.00 0.00 0.00 31 1022.0
20260902094749 25 208 0.0 0.0 0.00 0.00 0.00 35 1022.0
20260902093249 24 130 0.0 0.0 0.00 0.00 0.00 36 1022.0
20260902091749 23 144 0.0 0.0 0.00 0.00 0.00 38 1022.0
20260902090249 22 176 0.0 0.0 0.00 0.00 0.00 40 1022.0
20260902084749 21 333 0.0 0.0 0.00 0.00 0.00 44 1022.0
20260902083249 21 333 0.0 0.0 0.00 0.00 0.00 45 1022.0
20260902081749 20 78 0.0 0.0 0.00 0.00 0.00 46 1022.0
20260902080249 18 151 0.0 0.0 0.00 0.00 0.00 56 1022.0
20260902074749 18 123 0.0 0.0 0.00 0.00 0.00 56 1022.0
20260902073249 17 115 0.0 0.0 0.00 0.00 0.00 56 1022.0
20260902071749 17 119 0.0 0.0 0.00 0.00 0.00 62 1021.0
20260902070249 15 120 0.0 0.0 0.00 0.00 0.00 68 1021.0
20260902064749 15 156 0.0 0.0 0.00 0.00 0.00 70 1021.0
20260902063249 15 113 0.0 0.0 0.00 0.00 0.00 72 1021.0
20260902061749 14 115 0.0 0.0 0.00 0.00 0.00 72 1021.0
20260902060249 14 94 0.0 0.0 0.00 0.00 0.00 72 1021.0
20260902054749 13 95 0.0 0.0 0.00 0.00 0.00 74 1021.0
20260902053249 13 81 0.0 0.0 0.00 0.00 0.00 75 1021.0
20260902051749 13 112 0.0 0.0 0.00 0.00 0.00 74 1021.0
20260902050249 13 104 0.0 0.0 0.00 0.00 0.00 74 1021.0
20260902044749 13 92 0.0 0.0 0.00 0.00 0.00 75 1021.0
20260902043249 13 97 0.0 0.0 0.00 0.00 0.00 75 1021.0
20260902041749 13 97 0.0 0.0 0.00 0.00 0.00 76 1021.0
20260902040249 13 160 0.0 0.0 0.00 0.00 0.00 74 1021.0
20260902034749 13 154 0.0 0.0 0.00 0.00 0.00 73 1021.0
20260902033249 14 165 0.0 0.0 0.00 0.00 0.00 73 1021.0
20260902031749 14 89 0.0 0.0 0.00 0.00 0.00 72 1021.0
20260902030249 14 87 0.0 0.0 0.00 0.00 0.00 72 1021.0
20260902024749 14 95 0.0 0.0 0.00 0.00 0.00 72 1021.0
20260902023249 14 94 0.0 0.0 0.00 0.00 0.00 72 1021.0
20260902021749 14 62 0.0 0.0 0.00 0.00 0.00 71 1021.0
20260902020249 14 105 0.0 0.0 0.00 0.00 0.00 71 1021.0
20260902014749 14 160 0.0 0.0 0.00 0.00 0.00 72 1021.0
20260902013249 14 154 0.0 0.0 0.00 0.00 0.00 72 1021.0
20260902011749 15 149 0.0 0.0 0.00 0.00 0.00 71 1021.0
20260902010249 15 156 0.0 0.0 0.00 0.00 0.00 68 1021.0
20260902004749 15 91 0.0 0.0 0.00 0.00 0.00 67 1021.0
20260902003249 15 198 0.0 0.0 0.00 0.00 0.00 69 1021.0
20260902001749 15 172 0.0 0.0 0.00 0.00 0.00 68 1021.0
20260902000250 15 156 0.0 0.0 0.00 0.00 0.00 66 1021.0
20260901234749 16 150 0.0 0.0 0.00 0.00 0.00 65 1021.0
20260901233249 16 91 0.0 0.0 0.00 0.00 0.00 65 1021.0
20260901231749 16 163 0.0 0.0 0.00 0.00 0.00 64 1021.0
20260901230249 16 126 0.0 0.0 0.00 0.00 0.00 62 1021.0
20260901224749 16 51 0.0 0.0 0.00 0.00 0.00 60 1022.0
20260901223249 17 94 0.0 0.0 0.00 0.00 0.00 58 1021.0
20260901221749 17 85 0.0 0.0 0.00 0.00 0.00 57 1021.0
20260901220249 17 88 0.0 0.0 0.00 0.00 0.00 56 1021.0
20260901214749 17 59 0.0 0.0 0.00 0.00 0.00 55 1021.0
20260901213249 17 91 0.0 0.0 0.00 0.00 0.00 54 1021.0
20260901211749 18 85 0.0 0.0 0.00 0.00 0.00 52 1021.0
20260901210249 18 103 0.0 0.0 0.00 0.00 0.00 51 1021.0
20260901204749 18 88 0.0 0.0 0.00 0.00 0.00 50 1021.0
20260901203249 18 80 0.0 0.0 0.00 0.00 0.00 50 1022.0
20260901201749 18 132 1.6 0.0 0.00 0.00 0.00 49 1021.0
20260901200249 19 100 0.0 0.0 0.00 0.00 0.00 49 1021.0
20260901194749 19 83 0.0 0.0 0.00 0.00 0.00 47 1021.0
20260901193249 20 83 0.0 0.0 0.00 0.00 0.00 46 1021.0
20260901191749 20 85 0.0 0.0 0.00 0.00 0.00 44 1021.0
20260901190249 20 93 0.0 0.0 0.00 0.00 0.00 43 1021.0
20260901184749 21 92 0.0 0.0 0.00 0.00 0.00 42 1021.0
20260901183249 21 56 0.0 0.0 0.00 0.00 0.00 39 1021.0
20260901181749 21 5 0.0 0.0 0.00 0.00 0.00 37 1021.0
20260901180249 21 6 0.0 0.0 0.00 0.00 0.00 36 1021.0
20260901174749 22 5 0.0 0.0 0.00 0.00 0.00 34 1021.0
20260901173249 22 4 0.0 0.0 0.00 0.00 0.00 34 1021.0
20260901171749 23 4 0.0 0.0 0.00 0.00 0.00 32 1021.0
20260901170249 23 4 0.0 0.0 0.00 0.00 0.00 32 1021.0
20260901164749 23 5 0.0 0.0 0.00 0.00 0.00 32 1021.0
20260901163249 24 5 0.0 0.0 0.00 0.00 0.00 30 1021.0
20260901161749 24 4 0.0 0.0 0.00 0.00 0.00 30 1021.0
20260901160249 25 4 0.0 0.0 0.00 0.00 0.00 30 1021.0
20260901154749 25 323 0.0 0.0 0.00 0.00 0.00 26 1021.0
20260901153249 25 5 0.0 0.0 0.00 0.00 0.00 24 1021.0
20260901151749 26 334 0.0 0.0 0.00 0.00 0.00 25 1021.0
20260901150249 26 336 0.0 0.0 0.00 0.00 0.00 24 1021.0
20260901144749 26 339 0.0 0.0 0.00 0.00 0.00 25 1021.0
20260901143249 26 4 0.0 0.0 0.00 0.00 0.00 29 1021.0
20260901141749 26 339 0.0 0.0 0.00 0.00 0.00 29 1021.0
20260901140249 25 32 0.0 0.0 0.00 0.00 0.00 31 1021.0
20260901134749 25 340 0.0 0.0 0.00 0.00 0.00 33 1021.0
20260901133249 25 19 0.0 0.0 0.00 0.00 0.00 32 1022.0
20260901131749 25 5 0.0 0.0 0.00 0.00 0.00 32 1022.0
20260901130249 26 339 0.0 0.0 0.00 0.00 0.00 30 1022.0
20260901124749 26 315 0.0 0.0 0.00 0.00 0.00 27 1022.0
20260901123249 26 337 0.0 0.0 0.00 0.00 0.00 27 1022.0
20260901121749 25 5 0.0 0.0 0.00 0.00 0.00 30 1022.0
20260901120249 25 332 0.0 0.0 0.00 0.00 0.00 30 1022.0
20260901114749 26 252 0.0 0.0 0.00 0.00 0.00 26 1022.0
20260901113249 27 68 0.0 0.0 0.00 0.00 0.00 23 1022.0
20260901111749 27 174 0.0 0.0 0.00 0.00 0.00 24 1022.0
20260901110249 27 108 0.0 0.0 0.00 0.00 0.00 24 1022.0
20260901104749 26 272 0.0 0.0 0.00 0.00 0.00 28 1022.0
20260901103249 26 181 0.0 0.0 0.00 0.00 0.00 30 1022.0